Погода в Планосе

Греция     37°48′56″N   20°51′54″E
темп.,
°C
ветер,
м/с
пор.,
м/с
влажн.,
%
обл.,
%
осадки,
мм/ч
давл.,
гПа
погр.,
м
8 августа, пн
пн800:00+26всв34762 0.0 100963
03:00+26всв33745 0.0 100956
06:00+26ссв586164 0.0 1009288
09:00+27св585760 0.0 1010361
12:00+30св79400 0.0 1011783
15:00+32ссв45350 0.0 10101105
18:00+30сз67450 0.0 1009684
21:00+29ссв610470 0.0 1010242
9 августа, вт
вт900:00+26св45610 0.0 101299
03:00+26ссв47650 0.0 1011130
06:00+26ссв511640 0.0 1011357
09:00+28ссв510480 0.0 1012609
12:00+31св68320 0.0 1012798
15:00+33ссз47280 0.0 10111455
18:00+30сз99492 0.0 1011860
21:00+27сз710610 0.0 1011157
10 августа, ср
ср1000:00+26сз810795 0.0 1012233
03:00+25ссз45730 0.0 101198
06:00+25сз45810 0.0 1011160
09:00+27сз33682 0.0 1012379
12:00+30зсз43553 0.0 1011848
15:00+31зсз75512 0.0 10111332
18:00+27сз910745 0.0 1010346
21:00+26сз710785 0.0 1010251
11 августа, чт
чт1100:00+25сз57781 0.0 1011301
03:00+25сз56805 0.0 1011213
06:00+24ссз33795 0.0 1010144
09:00+27в11645 0.0 1011263
12:00+31юз21495 0.0 1011832
15:00+29з54595 0.0 1011716
18:00+28зсз55685 0.0 1011399
21:00+25зсз348317 0.0 1011180
12 августа, пт
пт1200:00+24з11845 0.0 101290
03:00+24ссз33853 0.0 1011173
06:00+24ссз11854 0.0 101179
09:00+26в11735 0.0 1012332
12:00+29ю32565 0.0 1012889
15:00+29з54540 0.0 1011676
18:00+28з43590 0.0 1011597
21:00+25в11740 0.0 101230